Zurück zum Katalog

STARLINK-4070

AktivKommunikationVLEO
NORAD 52664·PAYLOAD·🇺🇸 United States

Gestartet May 18, 2022 von Cape Canaveral Space Force Station

Loading…

Nächste Überflüge (nächste 24 Stunden)

TLE

AktuellSource: CelesTrak SupGP

Epoche: Sep 15, 2026, 01:35 UTC

1 52664C 22053J   26258.06645833 -.00033703  00000+0 -21138-2 0  2585
2 52664  53.1606  23.3438 0001198  89.6930 302.5177 15.08846771    16

Verfolge STARLINK-4070 in Echtzeit mit AllMySat

Download on the App Store